Regional Weather Roundup
Issued by NWS

Home | Current Version | Previous Version | Graphics & Text | Print | Product List | Glossary On
Versions: 1 2 3 4 5 6 7 8 9 10 11 12 13 14 15 16 17 18 19 20 21 22 23 24 25 26 27 28 29 30 31 32 33 34 35 36 37 38 39 40 41 42 43 44 45 46 47 48 49 50
000
ASUS43 KLMK 282010
RWRKY
KENTUCKY REGIONAL WEATHER ROUNDUP
NATIONAL WEATHER SERVICE LOUISVILLE KY
400 PM EDT SAT MAR 28 2015

NOTE "FAIR" INDICATES FEW OR NO CLOUDS BELOW 12,000 FEET
WITH NO SIGNIFICANT WEATHER AND/OR OBSTRUCTIONS TO VISIBILITY.

KYZ001>023-026-027-061>063-070>075-282100-
WESTERN AND SOUTH CENTRAL KENTUCKY

CITY           SKY/WX    TMP DP  RH WIND       PRES   REMARKS
PADUCAH        SUNNY     45  17  32 VRB3      30.28F
HENDERSON      SUNNY     41  23  48 NE6       30.31F
OWENSBORO      SUNNY     40  19  43 N7        30.31F
HOPKINSVILLE   SUNNY     42  17  36 VRB3      30.27F
BOWLING GREEN  SUNNY     44  13  28 CALM      30.27F
GLASGOW        SUNNY     42  15  33 N5        30.26F
$$

KYZ024-025-028>034-038-045-046-053-282100-
NORTH CENTRAL KENTUCKY

CITY           SKY/WX    TMP DP  RH WIND       PRES   REMARKS
LOUISVILLE/SDF MOSUNNY   41  13  31 NW8       30.29F
LOUISVILLE/LOU SUNNY     39  14  36 CALM      30.29F
FORT KNOX      SUNNY     39  14  35 NE5       30.25S
$$

KYZ035>037-039>044-047>052-055>060-089>105-282100-
NORTHEAST KENTUCKY

CITY           SKY/WX    TMP DP  RH WIND       PRES   REMARKS
LEXINGTON      MOSUNNY   40  14  34 MISG      30.25F
COVINGTON      MOSUNNY   36  12  37 NW8       30.26F WCI  30
FRANKFORT      SUNNY     40   9  28 N9        30.25F WCI  34
$$

KYZ054-064>069-076>088-106>120-282100-
SOUTHEAST KENTUCKY

CITY           SKY/WX    TMP DP  RH WIND       PRES   REMARKS
JACKSON        SUNNY     38  10  31 NW10      30.19S WCI  31
LONDON         MOSUNNY   41  11  29 NW13      30.20F
SOMERSET       SUNNY     37  16  41 N10       30.25S WCI  30
MIDDLESBORO    SUNNY     41  16  35 N8G17     30.18F
MONTICELLO     CLEAR     42  15  33 NW12      30.26F
$$




USA.gov is the U.S. government's official web portal to all federal, state and local government web resources and services.